This demonstration page uses our WeatherBlox Daily Observations layout. Learn more.

Left ArrowRight Arrow

Hourly Observations for March 28, 2022

Temp ( °F °C ) Dew Point ( °F °C ) Humidity (%) Winds ( mph kmh ) Pressure ( in mb ) Visibility ( mi km ) Precip ( " mm )
12:15 am 00:15 Clear 36 2 19 -7 52 52 SE 10 17 30.16 1021 10 16 0.00 0.00
12:35 am 00:35 Clear 36 2 19 -7 52 52 ESE 12 19 30.15 1021 10 16 0.00 0.00
12:55 am 00:55 Clear 36 2 19 -7 52 52 SE 10 17 30.15 1021 10 16 0.00 0.00
1:15 am 01:15 Clear 34 1 19 -7 56 56 SE 12 19 30.17 1022 10 16 0.00 0.00
1:35 am 01:35 Clear 34 1 19 -7 56 56 SE 12 19 30.16 1021 10 16 0.00 0.00
1:55 am 01:55 Clear 34 1 19 -7 56 56 SE 9 15 30.16 1021 10 16 0.00 0.00
2:15 am 02:15 Clear 34 1 19 -7 56 56 SE 10 17 30.16 1021 10 16 0.00 0.00
2:35 am 02:35 Clear 34 1 21 -6 60 60 SE 9 15 30.16 1021 10 16 0.00 0.00
2:55 am 02:55 Clear 34 1 21 -6 60 60 SE 9 15 30.16 1021 10 16 0.00 0.00
3:15 am 03:15 Clear 34 1 21 -6 60 60 ESE 8 13 30.16 1021 10 16 0.00 0.00
3:35 am 03:35 Clear 32 0 21 -6 64 64 SE 8 13 30.15 1021 10 16 0.00 0.00
3:55 am 03:55 Clear 32 0 21 -6 64 64 SE 8 13 30.15 1021 10 16 0.00 0.00
4:15 am 04:15 Clear 32 0 21 -6 64 64 SE 9 15 30.14 1021 10 16 0.00 0.00
4:35 am 04:35 Clear 32 0 21 -6 64 64 SE 8 13 30.14 1021 10 16 0.00 0.00
4:55 am 04:55 Clear 32 0 21 -6 64 64 SE 7 11 30.14 1021 10 16 0.00 0.00
5:15 am 05:15 Clear 32 0 21 -6 64 64 SE 8 13 30.13 1020 10 16 0.00 0.00
5:35 am 05:35 Clear 30 -1 21 -6 69 69 SE 7 11 30.13 1020 10 16 0.00 0.00
5:55 am 05:55 Clear 30 -1 21 -6 69 69 SE 7 11 30.13 1020 10 16 0.00 0.00
6:15 am 06:15 Clear 30 -1 21 -6 69 69 SE 7 11 30.12 1020 10 16 0.00 0.00
6:35 am 06:35 Clear 30 -1 21 -6 69 69 SE 5 7 30.12 1020 10 16 0.00 0.00
6:55 am 06:55 Clear 30 -1 21 -6 69 69 SE 7 11 30.12 1020 10 16 0.00 0.00
7:15 am 07:15 Clear 30 -1 21 -6 69 69 SE 6 9 30.11 1020 10 16 0.00 0.00
7:35 am 07:35 Sunny 30 -1 21 -6 69 69 SE 6 9 30.12 1020 10 16 0.00 0.00
7:55 am 07:55 Sunny 30 -1 23 -5 75 75 SE 7 11 30.12 1020 10 16 0.00 0.00
8:15 am 08:15 Sunny 30 -1 21 -6 69 69 SE 7 11 30.13 1020 10 16 0.00 0.00
8:35 am 08:35 Sunny 30 -1 21 -6 69 69 SE 9 15 30.12 1020 10 16 0.00 0.00
8:55 am 08:55 Sunny 32 0 23 -5 69 69 SE 10 17 30.11 1020 10 16 0.00 0.00
9:15 am 09:15 Sunny 34 1 23 -5 65 65 SE 12 19 30.10 1019 10 16 0.00 0.00
9:35 am 09:35 Sunny 36 2 23 -5 60 60 SE 13 20 30.08 1019 10 16 0.00 0.00
9:55 am 09:55 Sunny 37 3 23 -5 56 56 SSE 13 20 30.07 1018 10 16 0.00 0.00
10:15 am 10:15 Sunny 41 5 23 -5 49 49 SSE 13 20 30.05 1018 10 16 0.00 0.00
10:35 am 10:35 Sunny 41 5 23 -5 49 49 SSE 8 13 30.05 1018 10 16 0.00 0.00
10:55 am 10:55 Sunny 41 5 23 -5 49 49 SSE 13 20 30.04 1017 10 16 0.00 0.00
11:15 am 11:15 Sunny 43 6 27 -3 53 53 SSE 9 15 30.03 1017 10 16 0.00 0.00
11:35 am 11:35 Sunny 48 9 28 -2 46 46 SSE 10 17 30.00 1016 10 16 0.00 0.00
11:55 am 11:55 Sunny 48 9 27 -3 43 43 S 12 19 29.99 1016 10 16 0.00 0.00
12:15 pm 12:15 Sunny 50 10 28 -2 43 43 SSE 12 19 29.96 1015 10 16 0.00 0.00
12:35 pm 12:35 Sunny 52 11 28 -2 41 41 S 10 17 29.94 1014 10 16 0.00 0.00
12:55 pm 12:55 Sunny 52 11 30 -1 44 44 SSE 12 19 29.92 1013 10 16 0.00 0.00
1:15 pm 13:15 Sunny 54 12 28 -2 38 38 SE 12 19 29.90 1013 10 16 0.00 0.00
1:35 pm 13:35 Sunny 55 13 30 -1 38 38 SSE 12 19 29.88 1012 10 16 0.00 0.00
1:55 pm 13:55 Sunny 55 13 30 -1 38 38 SSE 13 20 29.86 1011 10 16 0.00 0.00
2:15 pm 14:15 Sunny 55 13 30 -1 38 38 SE 12 19 29.86 1011 10 16 0.00 0.00
2:35 pm 14:35 Sunny 59 15 30 -1 34 34 SE 13 20 29.83 1010 10 16 0.00 0.00
2:55 pm 14:55 Sunny 61 16 32 0 34 34 SSE 14 22 29.82 1010 10 16 0.00 0.00
3:15 pm 15:15 Sunny 61 16 32 0 34 34 SSE 14 22 29.80 1009 10 16 0.00 0.00
3:35 pm 15:35 Sunny 61 16 32 0 34 34 S 16 26 29.79 1009 10 16 0.00 0.00
3:55 pm 15:55 Sunny 61 16 32 0 34 34 SSE 16 26 29.79 1009 10 16 0.00 0.00
4:15 pm 16:15 Sunny 63 17 32 0 32 32 SSE 17 28 29.77 1008 10 16 0.00 0.00
4:35 pm 16:35 Sunny 63 17 32 0 32 32 SSE 17 28 29.76 1008 10 16 0.00 0.00
4:55 pm 16:55 Sunny 63 17 32 0 32 32 SSE 15 24 29.75 1007 10 16 0.00 0.00
5:15 pm 17:15 Sunny 63 17 34 1 34 34 SSE 13 20 29.74 1007 10 16 0.00 0.00
5:35 pm 17:35 Sunny 63 17 32 0 32 32 SE 16 26 29.74 1007 10 16 0.00 0.00
5:55 pm 17:55 Sunny 61 16 32 0 34 34 SSE 15 24 29.74 1007 10 16 0.00 0.00
6:15 pm 18:15 Sunny 61 16 34 1 36 36 SSE 16 26 29.74 1007 10 16 0.00 0.00
6:35 pm 18:35 Sunny 61 16 34 1 36 36 SSE 17 28 29.75 1007 10 16 0.00 0.00
6:55 pm 18:55 Sunny 61 16 34 1 36 36 SSE 14 22 29.75 1007 10 16 0.00 0.00
7:15 pm 19:15 Sunny 59 15 34 1 39 39 SSE 13 20 29.76 1008 10 16 0.00 0.00
7:35 pm 19:35 Sunny 59 15 34 1 39 39 SSE 13 20 29.75 1007 10 16 0.00 0.00
7:55 pm 19:55 Sunny 55 13 34 1 44 44 SSE 10 17 29.76 1008 10 16 0.00 0.00
8:15 pm 20:15 Clear 54 12 34 1 47 47 SSE 9 15 29.76 1008 10 16 0.00 0.00
8:35 pm 20:35 Clear 54 12 36 2 51 51 SSE 7 11 29.77 1008 10 16 0.00 0.00
8:55 pm 20:55 Clear 52 11 36 2 54 54 SE 7 11 29.78 1009 10 16 0.00 0.00
9:15 pm 21:15 Clear 48 9 34 1 58 58 SE 7 11 29.80 1009 10 16 0.00 0.00
9:35 pm 21:35 Clear 48 9 36 2 62 62 SE 9 15 29.79 1009 10 16 0.00 0.00
9:55 pm 21:55 Clear 48 9 36 2 62 62 SE 8 13 29.79 1009 10 16 0.00 0.00
10:15 pm 22:15 Clear 48 9 36 2 62 62 SE 7 11 29.78 1008 10 16 0.00 0.00
10:35 pm 22:35 Clear 48 9 37 3 66 66 SE 8 13 29.78 1008 10 16 0.00 0.00
10:55 pm 22:55 Clear 48 9 37 3 66 66 SE 9 15 29.77 1008 10 16 0.00 0.00
11:15 pm 23:15 Clear 48 9 37 3 66 66 SE 8 13 29.77 1008 10 16 0.00 0.00
11:35 pm 23:35 Clear 45 7 36 2 71 71 ESE 9 15 29.78 1008 10 16 0.00 0.00
11:55 pm 23:55 Clear 43 6 34 1 71 71 SE 9 15 29.79 1009 10 16 0.00 0.00

Powered by AerisWeather